Location: Newark
(54.6833°N, 25.2833°E)
Time: 18:03:33
(UTC+00:00)

Altair - Pass Details

Date: 15 November 2019
Orbit: 1502 x 1682 km, 47.2° (Epoch: 14 December)

Event Time Altitude Azimuth Distance (km) Brightness Sun altitude
Rises 09:53:27 0° 282° (WNW) 4,699 9.9 16.8°
Reaches altitude 10° 09:58:21 10° 260° (W) 3,745 9.7 16.9°
Maximum altitude 10:02:48 14° 232° (SW) 3,433 10.0 16.9°
Drops below altitude 10° 10:07:19 10° 203° (SSW) 3,806 11.1 16.9°
Sets 10:12:26 0° 181° (S) 4,826 11.9 16.8°
